sat.trackr.live / text

‹ back to catalog

STARLINK-34840

NORAD 66406 · 2025-257AC

PAYLOAD ACTIVE UNKNOWN

§ Identity

Operator
Country
US
Launch date
2025-11-09
Launch site
AFETR
Launch vehicle
Mass (kg)
RCS (m²)

Purposes: comms

External: N2YO · Heavens-Above · Gunter

§ Orbital elements

Epoch: 2026-09-20T13:38:23.874432Z

Period
93.85 min
Inclination
53.1587°
Eccentricity
0.0001135
Mean motion
15.34409446 rev/d
Perigee alt
461.9 km
Apogee alt
463.5 km
Semi-major
6,840.8 km
B*
5.7911e-4
RAAN
27.3236°
Arg perigee
39.2754°
Mean anomaly
320.8331°
Rev number
4,957

§ Raw data

STARLINK-348401 66406U 25257AC  26263.56833188  .00019246  00000+0  57911-3 0  99912 66406  53.1587  27.3236 0001135  39.2754 320.8331 15.34409446 49571

JSON: /api/v1/satellites/66406 · /tle

For live sub-satellite position, see the globe view (requires WebGL).

§ Visibility from observer

Set your observer location to see the next 7 days of passes ≥ 10°. The values pass through the URL so the page stays shareable.

No JS? Fill the form by hand. The geolocation button needs JavaScript.